DECAYED
Showing default

IRIS-C2, 58269 (Decayed)

Orbit data source: Space-Track

IRIS-C2, 58269 was a payload satellite owned by NCKU (TW) in LEO that was launched on Sat, 11 Nov 2023 UTC via an FALCON 9 launch vehicle from the Air Force Western Test Range (AFWTR). Payload-class satellites include a variety of spacecraft equipped with specific instruments for various scientific and technological missions. These include communications satellites like Starlink; space stations such as the ISS; scientific satellites like the Hubble; Earth observation satellites from companies like Planet Labs, Umbra, and HawkEye 360; GPS; miniature CubeSats for education and research; and military/defense satellites.

Not visible in the next 10 days
Identifier
58269, 2023-174P
Orbit
Decayed
Country
Flag of TWTW / TWN
Related business
Manufacturer
NCKU
Mission
Decayed Amateur Communications
Bus & Motor
CUBESAT 3U, Unknown motor
Mass
3 kg wet, 3 kg dry
Launch date (UTC)
2023-11-11 (2 years ago)
Launch vehicle
FALCON 9
Launch site
Air Force Western Test Range (AFWTR)
Object type
Payload
Rocket body
Debris
Shape & HBR
Box, 0.1 m
Radar Cross Section
0.035 m², Medium (>0.1 m² and < 1m²)

Expand to show TLE details & history
Last TLE update: 2 months ago

TLE from 2 months ago
0 IRIS-C2
1 58269U 23174P   25229.18222294  .06902863  25108-5  96444-3 0  9992
2 58269  97.3862 320.9211 0014889 265.3339  94.6257 16.34718316 99557
Epoch: 2025-08-17T04:22Z
TLE epoch observation values (Epoch: 2025-08-17T04:22:24.062Z)
Latitude
-0.00001°
Longitude
-70.48593°
Altitude
183.937 km
Speed
7.795 km/s
True Right ascension
21h 23m 41s
True Declination
0° 00' 00"
Sunlit
Object was in full shadow at epoch
Visualization orbit readout
Latitude
Unknown
Longitude
Unknown
Altitude
Unknown
Speed
Unknown
Apparent Right ascension
Unknown
Apparent Declination
Unknown
Sunlit
N/A
Visualization observer readout
Local Sidereal Time
15:05:37
Azimuth
Unknown
Elevation
Unknown
Doppler factor
Unknown
Orbital elements
Apogee altitude
186.464 km
Perigee altitude
166.945 km
Semi-major axis
6,554.841 km
Eccentricity
0.00149
Inclination
97.3862°
RAAN
320.9211°
Arg. of periapsis
265.3339°
True anomaly
94.79573°
Mean anomaly
94.6257°
Eccentric anomaly
94.71072°
Mean motion
4.08978 °/min
Orbital period
88.02 mins
BSTAR
0.00096444
Loading maneuver chart data...
Computing Atmospheric mass density...

Documentation

Showing up to 5 results
|